Theta_e
324 325 328 334 338 342 346 345 342 350 349 343 341 341 346 349 347 342 349 344 336 321 319 324 325 322 322 324 325 327 327 326 327 328 330 331 332 332 332 333 333 334 336 337 337 337 337 337 337
322 324 329 334 339 341 345 345 348 347 347 345 345 341 348 352 351 349 345 345 329 319 319 322 323 322 322 324 326 326 327 327 327 329 330 332 333 334 334 333 333 335 336 336 337 336 337 338 338
320 324 330 325 333 339 343 345 345 343 342 344 344 342 347 351 350 348 345 333 325 319 319 322 322 322 323 324 325 326 327 327 328 329 331 331 333 335 335 335 334 335 335 336 335 336 338 337 337
319 327 329 327 330 341 342 344 344 343 340 341 341 342 350 349 348 339 331 330 324 319 319 321 322 322 323 324 325 326 327 327 328 329 330 331 331 331 333 334 335 334 334 334 335 337 337 336 336
319 326 322 323 347 348 343 343 344 340 340 338 340 351 351 351 348 340 333 329 324 319 318 321 322 322 322 323 325 325 325 326 327 328 329 329 329 330 329 329 329 330 330 331 332 333 334 334 336
320 323 321 342 348 347 345 343 341 341 339 347 349 349 351 348 344 339 332 329 326 321 318 321 322 322 322 323 324 324 325 325 325 325 325 326 327 327 328 329 328 328 327 327 327 329 330 332 333
317 314 320 339 349 349 345 343 342 340 339 345 346 348 350 348 346 343 338 333 328 323 319 319 322 322 323 323 324 324 324 325 325 325 326 326 327 327 326 326 331 331 330 327 326 325 325 325 326
320 314 319 328 346 347 344 340 338 341 344 343 344 345 349 348 348 346 341 334 330 326 321 318 320 322 322 323 323 323 324 325 325 325 326 326 326 333 337 337 338 338 338 337 335 332 333 328 329
318 312 314 334 343 344 341 340 340 341 342 340 341 345 347 350 350 347 341 338 334 330 323 319 319 321 321 322 322 322 323 323 323 324 324 325 327 333 338 339 341 341 340 339 338 338 339 340 341
314 312 328 332 340 341 340 341 342 340 338 338 343 347 349 350 349 347 342 339 332 333 330 321 325 329 332 331 322 321 322 322 323 323 323 326 326 336 338 340 342 340 339 338 338 337 337 338 338
314 320 341 344 342 341 340 342 343 338 340 339 336 342 348 349 348 347 345 345 345 345 345 344 339 339 337 337 325 324 335 333 337 338 340 339 337 338 339 340 342 340 339 338 337 336 335 336 335
315 331 345 346 345 343 342 343 337 336 333 336 337 340 344 346 345 345 346 346 346 346 345 342 344 343 342 340 339 336 339 338 339 340 341 341 340 340 340 340 342 341 340 340 338 336 335 334 334
314 331 345 345 342 341 343 335 329 328 329 333 335 336 339 340 339 338 340 342 343 343 342 343 344 343 342 342 340 339 339 340 340 340 341 342 342 342 342 343 342 342 341 340 339 338 336 335 334
319 344 344 343 342 337 330 330 333 326 330 331 334 334 334 334 334 334 334 336 336 338 340 341 341 343 343 342 340 338 338 337 338 338 338 341 341 342 343 342 340 338 336 338 339 338 337 336 336
341 342 335 341 335 335 334 334 328 326 330 328 328 328 329 329 329 332 332 333 334 334 335 336 338 339 340 341 340 339 338 339 339 338 337 338 339 339 342 341 338 336 336 333 334 335 336 336 336
331 332 341 334 334 334 331 342 325 325 330 324 324 325 325 324 326 327 328 330 331 332 333 335 335 337 338 339 340 339 339 339 340 339 339 339 339 339 339 339 339 338 338 337 337 336 333 331 331
315 339 331 339 332 331 329 331 325 325 329 324 323 322 323 322 322 323 324 326 328 329 330 331 334 334 335 338 338 338 339 339 339 339 339 339 339 339 339 339 339 339 339 338 338 338 339 339 339
313 335 325 343 336 330 328 327 325 324 325 323 321 320 320 320 320 318 318 318 320 323 326 327 329 331 332 334 337 337 336 336 336 336 336 337 338 339 339 338 338 339 339 339 339 339 338 339 339
313 314 323 335 329 327 329 327 326 323 322 320 319 318 317 317 316 316 316 315 314 313 314 317 321 327 328 329 330 332 334 334 333 333 334 335 336 336 336 335 334 332 332 333 334 335 335 334 334
313 313 313 314 324 327 326 327 325 322 322 320 318 317 316 315 314 314 314 313 312 311 310 310 311 315 321 325 326 327 328 329 328 326 325 323 320 319 320 317 313 311 310 310 311 311 310 309 310
314 314 314 317 325 324 326 327 324 322 320 320 319 318 316 315 314 314 313 312 311 310 309 309 309 309 310 313 317 318 318 316 313 310 309 308 308 307 306 306 306 306 306 306 306 306 306 306 305
315 315 315 324 324 327 325 330 323 322 320 317 316 315 315 314 314 313 312 311 310 309 308 308 308 307 307 308 309 309 309 308 307 307 306 305 304 304 304 304 304 304 304 305 305 304 304 304 304
318 319 317 319 322 324 325 322 320 321 321 318 314 313 314 314 314 312 310 310 309 309 307 307 306 306 306 306 306 306 306 305 304 303 302 302 302 302 301 300 300 301 301 302 303 303 303 303 303
318 318 313 315 316 323 324 326 319 324 325 321 313 313 314 313 312 311 310 309 309 308 307 307 306 306 306 306 305 304 304 304 303 302 301 300 300 299 300 299 298 298 298 298 299 299 299 299 299
317 314 315 315 321 323 319 322 322 318 321 319 313 312 313 312 311 310 310 309 309 308 307 307 306 306 306 306 306 304 302 302 302 301 300 299 299 299 299 298 297 297 296 296 297 297 297 298 298
317 313 315 318 317 317 319 324 320 312 315 316 313 312 312 311 310 310 309 309 308 308 307 307 306 306 306 306 305 304 303 302 302 300 299 299 298 298 298 298 298 296 295 295 295 296 296 296 297
320 316 315 316 316 316 317 319 316 312 313 312 311 311 309 310 310 310 309 309 308 307 307 306 306 305 305 305 305 304 303 302 300 297 297 298 297 297 298 298 298 296 295 295 295 295 295 295 296
325 321 321 315 320 321 323 321 319 312 311 310 310 308 308 310 309 309 308 308 307 307 306 306 306 305 305 305 305 304 303 302 301 299 295 295 295 296 297 298 297 295 294 294 293 294 294 295 295
327 325 323 319 320 322 325 325 319 310 309 309 308 307 309 309 309 308 308 307 307 307 306 306 305 305 305 304 305 304 303 302 302 301 296 294 294 295 296 297 296 294 293 292 292 292 292 293 294
326 327 323 326 328 326 325 322 309 307 307 308 308 308 308 309 308 307 307 307 307 306 306 305 305 304 304 305 304 303 303 303 302 301 298 294 294 296 296 296 294 292 291 291 291 291 290 290 292
Wind_Speed
14 18 14 6 2 5 3 5 2 5 5 7 8 4 7 17 3 3 14 15 20 19 19 17 15 14 17 19 20 20 19 19 19 20 20 17 17 17 18 18 18 18 17 16 14 12 11 9 9
14 11 5 3 3 4 1 3 4 2 9 5 8 9 12 6 6 14 23 14 20 19 18 17 15 15 17 18 19 19 18 17 17 18 16 16 16 15 15 15 15 14 13 13 11 9 8 8 7
12 8 1 4 3 2 3 2 2 8 8 5 2 7 5 4 12 19 15 22 20 19 17 16 15 15 16 17 18 17 17 16 15 15 14 14 14 14 13 13 12 10 9 9 9 8 6 4 4
7 1 3 4 2 2 5 8 9 8 12 5 7 7 9 10 11 12 21 20 18 18 17 16 15 15 15 16 16 16 15 14 13 13 13 12 12 11 11 10 9 7 7 6 7 7 4 3 5
3 1 3 3 3 2 6 6 12 8 6 6 5 5 6 9 14 15 18 18 17 18 17 16 14 14 13 14 14 15 14 13 12 10 10 9 9 9 9 8 7 6 6 5 5 4 2 3 5
2 2 4 1 2 3 6 6 3 9 6 15 17 15 4 19 16 15 14 14 13 15 16 15 15 13 12 12 12 12 12 11 11 10 9 8 8 7 8 8 7 6 6 5 4 3 3 4 5
7 4 4 5 3 3 4 5 7 19 11 5 12 3 15 19 17 16 16 15 15 14 14 14 13 12 11 10 9 9 9 9 9 9 8 7 7 6 6 7 7 7 6 5 4 3 3 4 5
6 5 4 4 6 5 9 5 12 10 5 8 2 5 9 23 21 17 16 17 15 14 14 14 13 11 10 8 7 7 7 6 6 6 6 6 5 5 5 5 5 6 7 6 5 3 2 3 5
6 4 3 6 8 5 12 6 10 4 5 6 5 16 25 26 24 21 19 17 16 15 15 16 15 13 12 10 9 8 7 6 4 3 3 3 4 1 2 2 4 5 6 5 4 4 3 4 6
5 4 7 8 7 10 14 12 9 4 5 7 21 25 26 26 25 25 22 21 19 17 16 16 15 14 12 10 10 8 8 7 5 4 2 2 4 3 2 2 2 2 3 4 6 6 4 7 9
4 6 5 2 15 25 18 10 6 6 4 2 16 25 30 32 26 24 24 20 18 16 14 14 14 14 11 9 11 12 9 9 7 6 5 5 3 7 7 7 7 7 7 5 6 5 6 7 9
5 8 11 10 17 21 17 11 7 8 8 19 24 26 28 29 27 24 24 20 17 15 12 14 17 15 12 11 11 11 12 12 11 11 11 9 7 6 7 9 10 11 11 11 12 12 11 11 11
4 7 12 22 22 23 13 6 6 18 19 21 23 24 26 26 24 21 20 19 17 16 14 14 14 15 13 12 10 10 12 13 14 14 14 13 12 10 10 11 13 14 16 16 17 17 17 17 17
8 13 21 18 15 15 14 12 4 10 20 22 24 23 21 20 19 17 16 17 16 16 16 15 13 13 13 12 10 9 10 10 10 11 14 15 15 14 14 16 16 18 20 22 21 21 21 20 20
23 13 7 9 12 4 20 2 3 23 22 22 20 19 17 14 12 13 10 10 11 11 13 13 13 13 13 13 13 12 11 10 10 10 11 12 14 15 17 18 19 20 19 20 22 23 24 26 26
6 5 6 5 7 7 4 6 7 22 24 20 18 17 14 12 9 7 5 6 7 7 8 10 10 11 11 13 13 13 13 12 11 11 10 10 10 12 13 16 18 20 21 21 21 22 23 26 27
4 6 4 5 10 2 3 4 13 24 22 21 18 17 15 13 9 7 5 6 8 8 8 9 9 9 10 12 14 16 14 14 14 13 12 12 13 14 13 14 17 18 21 23 25 26 27 29 28
5 7 1 14 15 10 5 7 14 26 25 23 21 19 17 14 11 7 4 3 5 7 8 9 9 9 10 12 13 13 12 13 13 11 11 11 13 14 16 17 19 21 22 24 26 27 27 31 35
4 5 7 16 4 6 14 6 15 22 19 22 22 21 19 15 13 8 6 3 1 3 4 6 7 8 9 10 11 12 12 10 9 10 11 13 17 20 23 22 21 21 21 23 25 28 29 30 36
4 6 7 6 6 9 6 5 6 15 10 23 27 25 23 22 17 11 7 3 2 2 3 4 4 5 6 8 9 9 9 10 9 9 10 10 11 12 13 15 15 14 14 15 17 18 18 18 22
5 5 6 6 4 5 8 3 7 7 7 19 25 26 26 25 20 14 9 6 5 4 2 3 4 3 4 4 4 4 5 4 3 4 4 6 7 9 9 10 11 12 12 12 13 14 15 14 13
7 8 8 7 6 6 6 5 7 12 8 14 24 27 27 23 17 13 10 9 7 8 8 7 6 6 6 5 3 3 4 2 2 4 6 7 8 9 10 11 12 12 13 12 13 14 14 14 14
10 9 9 8 9 6 6 1 6 15 10 17 19 28 30 26 20 16 12 10 10 10 9 9 8 8 8 6 5 4 5 6 7 7 7 7 8 9 10 11 11 12 13 14 14 13 15 16 17
8 5 7 5 5 4 11 14 5 14 27 21 19 30 34 28 22 18 14 11 10 10 10 10 8 9 9 8 7 6 6 7 5 7 6 8 9 10 11 13 14 14 14 14 12 13 14 16 16
3 5 4 3 0 6 8 5 6 9 8 20 24 32 37 31 27 23 17 15 11 9 10 10 9 10 9 9 11 10 8 8 9 10 9 9 8 10 11 13 14 15 16 15 13 13 16 17 18
6 9 5 9 5 6 5 7 5 7 13 30 35 38 38 33 29 23 19 13 10 8 8 8 8 8 8 8 10 10 8 8 9 10 9 10 10 11 11 14 14 16 17 16 16 14 18 19 19
6 4 5 3 2 3 3 3 3 9 12 23 30 35 31 34 30 26 21 14 10 9 7 4 5 7 7 7 9 11 10 9 10 11 9 9 10 10 10 13 15 18 18 17 16 17 17 19 20
1 4 2 4 2 5 3 2 3 1 8 14 20 25 32 35 30 25 20 16 14 11 8 6 4 5 6 6 7 9 8 8 10 13 10 9 8 7 9 12 15 18 19 19 19 19 18 20 21
6 5 5 3 4 0 2 2 6 7 8 14 20 25 34 35 31 26 20 17 14 10 9 8 4 1 4 4 5 7 6 7 9 12 13 11 8 7 10 11 15 18 19 19 19 20 21 22 23
6 4 4 3 4 2 4 4 5 9 12 19 24 28 31 32 29 24 22 21 18 13 10 9 3 1 1 2 1 4 4 5 8 11 14 11 7 8 10 13 16 19 20 21 21 22 22 24 25
Wind_Direction
344 342 344 345 32 65 22 359 203 293 34 61 57 38 83 38 50 175 144 153 163 158 145 151 155 142 131 122 120 120 121 122 123 125 123 117 116 115 113 116 114 114 114 111 108 103 92 88 85
338 344 356 10 50 42 149 138 329 71 159 98 60 52 40 49 52 132 152 145 166 150 145 150 148 139 130 124 123 122 124 126 127 127 123 117 115 115 115 118 119 116 112 108 104 97 89 91 77
337 357 130 100 103 181 218 163 90 335 353 49 92 53 82 96 108 140 162 149 162 146 145 145 145 142 133 128 126 127 128 129 131 129 124 119 116 114 115 115 117 112 111 104 99 98 94 73 59
344 101 64 77 312 43 265 163 142 346 354 20 116 61 60 120 117 144 152 158 155 145 145 149 148 144 136 131 131 131 130 130 131 130 124 119 114 112 112 110 108 102 97 92 92 93 90 38 21
352 114 57 96 146 289 298 160 165 97 340 314 239 93 91 164 127 149 157 159 153 145 150 153 150 146 141 138 137 133 132 133 131 126 122 117 113 110 103 98 94 91 85 79 80 77 43 1 359
93 99 68 31 84 115 345 90 88 121 207 135 117 107 74 138 120 131 149 150 151 147 151 154 150 149 146 144 139 134 132 131 128 123 120 116 110 103 97 90 81 71 62 54 52 41 359 343 333
136 91 161 161 185 130 175 181 173 152 198 313 154 83 144 143 131 131 141 152 147 147 151 153 150 148 148 144 139 139 133 134 132 130 126 121 116 106 92 80 62 51 37 23 17 6 334 321 308
144 93 138 199 204 215 156 149 172 159 212 135 283 154 168 155 144 145 149 149 143 146 150 149 148 144 142 140 142 141 141 147 147 145 140 140 128 103 88 84 59 37 18 10 9 10 345 323 308
148 81 175 197 181 181 151 158 174 179 156 48 68 145 148 160 157 147 143 144 146 148 149 150 147 145 142 149 161 160 159 164 165 151 143 152 166 136 111 76 29 16 351 335 356 359 346 337 323
119 116 208 191 194 163 159 155 174 164 127 97 89 133 154 160 159 151 146 145 150 147 146 148 150 149 145 152 168 173 173 174 174 166 166 218 218 239 259 272 310 298 332 330 336 323 303 304 312
143 168 203 88 148 147 159 184 197 184 67 103 121 131 150 161 162 159 152 155 159 157 162 166 169 165 165 159 163 171 159 152 142 139 147 156 182 248 266 274 285 280 264 272 262 257 266 273 304
95 146 166 161 145 145 146 155 103 84 109 145 144 148 153 159 158 160 156 161 164 171 175 182 189 180 191 188 190 185 189 185 188 198 202 201 207 219 238 248 261 271 274 274 269 267 271 272 279
119 189 170 155 148 143 144 112 128 103 123 141 145 149 149 148 146 150 153 160 170 169 171 175 180 201 204 213 214 218 221 223 223 227 229 228 234 242 253 260 265 272 277 281 280 277 273 273 272
164 158 141 154 161 139 131 145 123 141 147 138 144 135 136 137 139 142 147 153 161 164 170 176 178 188 194 198 199 208 208 216 225 233 241 241 247 252 258 264 270 278 280 278 280 281 278 275 275
120 106 65 138 144 141 143 43 126 157 163 141 136 135 139 138 146 153 153 158 164 177 177 182 190 191 196 202 207 207 214 212 220 229 237 245 250 256 255 259 270 279 286 283 279 278 278 279 278
91 50 114 240 196 180 251 205 152 169 165 148 147 147 147 143 154 161 176 192 197 202 200 200 199 200 205 216 222 223 224 231 235 237 243 250 257 261 264 271 279 285 287 291 293 293 288 281 280
317 157 163 173 224 170 252 222 180 179 178 165 169 164 163 160 165 176 199 219 223 225 225 220 217 218 218 220 225 232 236 241 245 249 255 265 272 275 280 286 287 288 290 292 294 296 298 295 292
191 155 203 179 210 208 177 245 167 184 185 174 178 171 168 170 166 167 171 177 198 203 212 212 211 214 224 226 225 228 227 232 241 251 260 270 284 292 291 291 290 288 286 287 289 293 296 298 298
160 130 177 209 229 142 216 213 189 179 179 167 169 170 168 166 158 165 168 154 127 152 174 181 188 193 209 215 221 228 236 245 259 272 283 289 282 286 281 284 287 291 292 292 293 291 293 293 292
187 184 208 261 217 163 161 260 198 187 191 177 172 174 167 159 155 145 133 131 159 88 76 97 132 157 190 214 224 228 241 250 261 276 281 292 297 300 301 305 310 315 314 310 308 308 308 312 311
236 191 220 185 92 50 117 347 198 213 184 189 195 191 181 172 164 158 142 119 93 100 86 84 93 114 146 176 208 219 240 253 266 303 321 332 335 337 337 337 333 333 333 333 334 332 333 337 336
264 203 231 143 131 204 184 235 215 199 189 184 187 190 180 173 168 157 146 124 103 93 91 98 99 95 104 111 167 184 197 189 30 12 15 14 15 18 20 21 20 17 16 13 11 6 2 356 356
241 249 212 193 201 127 170 95 265 153 200 211 188 175 179 174 170 156 144 127 110 98 96 96 100 100 94 94 93 90 84 72 62 56 41 40 38 37 34 30 27 25 25 29 33 32 25 20 14
238 308 44 50 120 220 201 198 216 182 204 196 170 173 176 170 165 152 144 137 125 108 98 91 89 89 77 70 67 65 69 71 60 53 41 35 32 33 30 24 20 19 17 19 16 16 12 12 9
128 79 299 310 91 227 196 187 228 219 225 186 168 165 172 170 162 156 162 156 139 119 112 106 92 88 73 55 47 44 45 45 40 37 33 31 29 30 30 28 26 21 18 16 11 8 7 9 8
223 168 171 239 213 230 131 213 233 286 272 167 165 161 167 167 161 161 163 157 139 124 124 117 102 79 66 49 38 33 33 38 31 28 32 31 27 30 26 24 25 23 21 17 11 8 0 358 356
295 189 215 223 86 122 216 296 299 20 117 143 149 152 157 163 164 166 163 156 143 132 132 121 98 77 52 42 32 29 35 32 28 25 25 23 12 16 13 19 16 15 12 10 11 6 360 356 352
69 309 24 17 270 239 250 274 270 306 141 140 144 143 154 161 168 164 160 151 152 141 137 144 114 72 44 23 25 23 36 25 26 17 19 13 10 7 9 11 7 7 7 7 6 4 0 356 355
2 12 3 92 116 139 309 270 302 176 166 150 138 142 157 167 167 163 158 156 154 145 136 151 170 344 16 348 357 8 29 22 14 12 16 7 11 5 12 8 1 4 5 5 5 1 359 357 353
126 92 356 87 330 78 139 282 342 102 121 138 139 146 160 164 161 155 154 161 162 159 148 159 165 99 343 142 254 359 22 15 4 8 9 20 24 17 14 8 1 2 3 1 3 1 357 351 349